{"data":{"norad_id":60428,"epoch":"2026-05-25T05:22:12.920160Z","epoch_age_seconds":58797,"freshness":"FRESH","line1":"1 60428U 24144D   26145.22376065  .00001136  00000+0  50463-4 0  9996","line2":"2 60428  53.1600 221.8690 0001147  77.2433 282.8695 15.30197704101069","mean_motion":15.30197704,"eccentricity":0.0001147,"inclination_deg":53.16,"raan_deg":221.869,"arg_perigee_deg":77.2433,"mean_anomaly_deg":282.8695,"bstar":5.0463e-5,"rev_number":10106,"period_min":94.105486907723,"perigee_km":474.43584460136,"apogee_km":476.00800513872,"semimajor_km":6853.35892487,"source":"CELESTRAK","updated_at":"2026-05-25T13:38:19.272914Z"}}